| time (UTC) | temp C | wind direction | speed KPH | gust KPH | rain 1hr cm | rain 24hr cm | rain mn cm | humidity % | barometer mb |
| 20260904212241 | 37 | 176 | 12.9 | 16.1 | 0.00 | 0.00 | 0.00 | 54 | 1012.2 |
| 20260904211751 | 37 | 209 | 9.7 | 19.3 | 0.00 | 0.00 | 0.00 | 54 | 1012.2 |
| 20260904211531 | 37 | 211 | 11.3 | 19.3 | 0.00 | 0.00 | 0.00 | 54 | 1009.1 |
| 20260904211244 | 37 | 196 | 11.3 | 19.3 | 0.00 | 0.00 | 0.00 | 52 | 1012.3 |
| 20260904210728 | 37 | 219 | 8.0 | 16.1 | 0.00 | 0.00 | 0.00 | 52 | 1012.3 |
| 20260904210238 | 37 | 153 | 11.3 | 16.1 | 0.00 | 0.00 | 0.00 | 53 | 1012.3 |
| 20260904210046 | 37 | 166 | 11.3 | 16.1 | 0.00 | 0.00 | 0.00 | 53 | 1009.2 |
| 20260904205750 | 37 | 206 | 9.7 | 17.7 | 0.00 | 0.00 | 0.00 | 52 | 1012.3 |
| 20260904205241 | 37 | 202 | 11.3 | 19.3 | 0.00 | 0.00 | 0.00 | 51 | 1012.3 |
| 20260904204726 | 37 | 228 | 9.7 | 19.3 | 0.00 | 0.00 | 0.00 | 53 | 1012.3 |
| 20260904204521 | 37 | 202 | 11.3 | 20.9 | 0.00 | 0.00 | 0.00 | 50 | 1009.2 |
| 20260904204236 | 37 | 192 | 16.1 | 20.9 | 0.00 | 0.00 | 0.00 | 50 | 1012.3 |
| 20260904203746 | 37 | 204 | 11.3 | 22.5 | 0.00 | 0.00 | 0.00 | 52 | 1012.3 |
| 20260904203230 | 37 | 202 | 12.9 | 19.3 | 0.00 | 0.00 | 0.00 | 50 | 1012.4 |
| 20260904203027 | 37 | 193 | 11.3 | 19.3 | 0.00 | 0.00 | 0.00 | 51 | 1009.3 |
| 20260904202743 | 37 | 188 | 14.5 | 17.7 | 0.00 | 0.00 | 0.00 | 53 | 1012.5 |
| 20260904202227 | 37 | 213 | 9.7 | 17.7 | 0.00 | 0.00 | 0.00 | 51 | 1012.5 |
| 20260904201738 | 37 | 166 | 9.7 | 17.7 | 0.00 | 0.00 | 0.00 | 51 | 1012.5 |
| 20260904201521 | 37 | 202 | 14.5 | 19.3 | 0.00 | 0.00 | 0.00 | 51 | 1009.4 |
| 20260904201251 | 37 | 165 | 12.9 | 19.3 | 0.00 | 0.00 | 0.00 | 52 | 1012.5 |
| 20260904200731 | 37 | 198 | 11.3 | 17.7 | 0.00 | 0.00 | 0.00 | 52 | 1012.6 |
| 20260904200300 | 37 | 215 | 11.3 | 19.3 | 0.00 | 0.00 | 0.00 | 51 | 1012.6 |
| 20260904200007 | 37 | 200 | 12.9 | 19.3 | 0.00 | 0.00 | 0.00 | 52 | 1009.5 |
| 20260904195722 | 37 | 160 | 8.0 | 14.5 | 0.00 | 0.00 | 0.00 | 52 | 1012.6 |
| 20260904195232 | 37 | 202 | 9.7 | 22.5 | 0.00 | 0.00 | 0.00 | 52 | 1012.6 |
| 20260904194746 | 37 | 154 | 14.5 | 22.5 | 0.00 | 0.00 | 0.00 | 54 | 1012.7 |
| 20260904194514 | 37 | 205 | 9.7 | 16.1 | 0.00 | 0.00 | 0.00 | 53 | 1009.6 |
| 20260904194229 | 37 | 216 | 11.3 | 17.7 | 0.00 | 0.00 | 0.00 | 54 | 1012.7 |
| 20260904193739 | 37 | 205 | 6.4 | 17.7 | 0.00 | 0.00 | 0.00 | 52 | 1012.7 |
| 20260904193229 | 37 | 207 | 12.9 | 17.7 | 0.00 | 0.00 | 0.00 | 53 | 1012.7 |
| 20260904193054 | 37 | 221 | 11.3 | 19.3 | 0.00 | 0.00 | 0.00 | 52 | 1009.6 |
| 20260904192756 | 37 | 199 | 9.7 | 19.3 | 0.00 | 0.00 | 0.00 | 56 | 1012.7 |
| 20260904192246 | 37 | 174 | 12.9 | 19.3 | 0.00 | 0.00 | 0.00 | 55 | 1012.8 |
| 20260904191729 | 37 | 172 | 11.3 | 19.3 | 0.00 | 0.00 | 0.00 | 54 | 1012.7 |
| 20260904191532 | 36 | 157 | 9.7 | 17.7 | 0.00 | 0.00 | 0.00 | 54 | 1009.7 |
| 20260904191241 | 36 | 186 | 8.0 | 17.7 | 0.00 | 0.00 | 0.00 | 53 | 1012.9 |
| 20260904190810 | 36 | 201 | 11.3 | 17.7 | 0.00 | 0.00 | 0.00 | 57 | 1012.9 |
| 20260904190232 | 36 | 165 | 11.3 | 16.1 | 0.00 | 0.00 | 0.00 | 57 | 1013.0 |
| 20260904190005 | 36 | 158 | 8.0 | 16.1 | 0.00 | 0.00 | 0.00 | 54 | 1009.9 |
| 20260904185743 | 36 | 198 | 8.0 | 16.1 | 0.00 | 0.00 | 0.00 | 55 | 1013.0 |
| 20260904185249 | 36 | 195 | 11.3 | 16.1 | 0.00 | 0.00 | 0.00 | 54 | 1013.1 |
| 20260904184740 | 36 | 199 | 11.3 | 16.1 | 0.00 | 0.00 | 0.00 | 55 | 1013.1 |
| 20260904184533 | 36 | 160 | 9.7 | 16.1 | 0.00 | 0.00 | 0.00 | 54 | 1010.0 |
| 20260904184252 | 36 | 223 | 11.3 | 16.1 | 0.00 | 0.00 | 0.00 | 57 | 1013.2 |
| 20260904183733 | 36 | 169 | 12.9 | 17.7 | 0.00 | 0.00 | 0.00 | 56 | 1013.1 |
| 20260904183306 | 36 | 214 | 9.7 | 16.1 | 0.00 | 0.00 | 0.00 | 56 | 1013.1 |
| 20260904183009 | 36 | 170 | 8.0 | 16.1 | 0.00 | 0.00 | 0.00 | 56 | 1010.0 |
| 20260904182726 | 36 | 211 | 11.3 | 16.1 | 0.00 | 0.00 | 0.00 | 57 | 1013.1 |
| 20260904182233 | 36 | 207 | 9.7 | 16.1 | 0.00 | 0.00 | 0.00 | 55 | 1013.2 |
| 20260904181745 | 36 | 211 | 12.9 | 16.1 | 0.00 | 0.00 | 0.00 | 56 | 1013.2 |
| 20260904181515 | 36 | 224 | 8.0 | 17.7 | 0.00 | 0.00 | 0.00 | 57 | 1010.2 |
| 20260904181228 | 36 | 180 | 9.7 | 14.5 | 0.00 | 0.00 | 0.00 | 57 | 1013.2 |
| 20260904180800 | 36 | 217 | 9.7 | 16.1 | 0.00 | 0.00 | 0.00 | 56 | 1013.2 |
| 20260904180222 | 35 | 220 | 6.4 | 16.1 | 0.00 | 0.00 | 0.00 | 56 | 1013.3 |
| 20260904180054 | 35 | 242 | 6.4 | 16.1 | 0.00 | 0.00 | 0.00 | 55 | 1010.2 |
| 20260904175733 | 36 | 209 | 11.3 | 16.1 | 0.00 | 0.00 | 0.00 | 55 | 1013.2 |
| 20260904175246 | 36 | 210 | 6.4 | 17.7 | 0.00 | 0.00 | 0.00 | 56 | 1013.3 |
| 20260904174728 | 36 | 206 | 11.3 | 16.1 | 0.00 | 0.00 | 0.00 | 57 | 1013.3 |
| 20260904174607 | 35 | 228 | 4.8 | 14.5 | 0.00 | 0.00 | 0.00 | 58 | 1010.2 |
| 20260904174501 | 35 | 227 | 4.8 | 14.5 | 0.00 | 0.00 | 0.00 | 57 | 1010.3 |
| 20260904174256 | 35 | 204 | 6.4 | 14.5 | 0.00 | 0.00 | 0.00 | 56 | 1013.3 |
| 20260904173745 | 35 | 208 | 9.7 | 16.1 | 0.00 | 0.00 | 0.00 | 56 | 1013.3 |
| 20260904173234 | 35 | 205 | 9.7 | 16.1 | 0.00 | 0.00 | 0.00 | 58 | 1013.3 |
| 20260904173025 | 35 | 199 | 3.2 | 16.1 | 0.00 | 0.00 | 0.00 | 60 | 1010.3 |
| 20260904172744 | 35 | 177 | 8.0 | 16.1 | 0.00 | 0.00 | 0.00 | 58 | 1013.3 |
| 20260904172226 | 35 | 199 | 9.7 | 16.1 | 0.00 | 0.00 | 0.00 | 58 | 1013.3 |
| 20260904171738 | 34 | 194 | 12.9 | 16.1 | 0.00 | 0.00 | 0.00 | 61 | 1013.3 |
| 20260904171529 | 33 | 212 | 4.8 | 16.1 | 0.00 | 0.00 | 0.00 | 62 | 1010.3 |
| 20260904171246 | 33 | 146 | 8.0 | 16.1 | 0.00 | 0.00 | 0.00 | 61 | 1013.3 |
| 20260904170729 | 33 | 164 | 11.3 | 16.1 | 0.00 | 0.00 | 0.00 | 60 | 1013.3 |
| 20260904170240 | 33 | 164 | 8.0 | 16.1 | 0.00 | 0.00 | 0.00 | 62 | 1013.3 |
| 20260904170027 | 33 | 153 | 8.0 | 16.1 | 0.00 | 0.00 | 0.00 | 62 | 1010.3 |
| 20260904165723 | 33 | 158 | 6.4 | 16.1 | 0.00 | 0.00 | 0.00 | 60 | 1013.3 |
| 20260904165236 | 33 | 220 | 8.0 | 19.3 | 0.00 | 0.00 | 0.00 | 61 | 1013.3 |
| 20260904164747 | 33 | 143 | 8.0 | 17.7 | 0.00 | 0.00 | 0.00 | 62 | 1013.3 |
| 20260904164530 | 33 | 219 | 4.8 | 17.7 | 0.00 | 0.00 | 0.00 | 63 | 1010.3 |
| 20260904164231 | 33 | 234 | 12.9 | 17.7 | 0.00 | 0.00 | 0.00 | 62 | 1013.3 |
| 20260904163740 | 33 | 211 | 9.7 | 19.3 | 0.00 | 0.00 | 0.00 | 64 | 1013.2 |
| 20260904163223 | 33 | 200 | 8.0 | 16.1 | 0.00 | 0.00 | 0.00 | 64 | 1013.2 |
| 20260904163031 | 32 | 192 | 6.4 | 17.7 | 0.00 | 0.00 | 0.00 | 63 | 1010.2 |
| 20260904162750 | 33 | 207 | 11.3 | 17.7 | 0.00 | 0.00 | 0.00 | 62 | 1013.3 |
| 20260904162234 | 33 | 226 | 9.7 | 17.7 | 0.00 | 0.00 | 0.00 | 61 | 1013.2 |
| 20260904161744 | 33 | 209 | 11.3 | 19.3 | 0.00 | 0.00 | 0.00 | 61 | 1013.3 |
| 20260904161511 | 33 | 221 | 9.7 | 16.1 | 0.00 | 0.00 | 0.00 | 61 | 1010.3 |
| 20260904161227 | 33 | 225 | 11.3 | 16.1 | 0.00 | 0.00 | 0.00 | 63 | 1013.3 |
| 20260904160735 | 33 | 202 | 9.7 | 16.1 | 0.00 | 0.00 | 0.00 | 64 | 1013.3 |
| 20260904160307 | 32 | 173 | 8.0 | 16.1 | 0.00 | 0.00 | 0.00 | 65 | 1013.3 |
| 20260904160049 | 32 | 200 | 6.4 | 14.5 | 0.00 | 0.00 | 0.00 | 64 | 1010.3 |
| 20260904155725 | 32 | 172 | 9.7 | 16.1 | 0.00 | 0.00 | 0.00 | 64 | 1013.3 |
| 20260904155237 | 32 | 199 | 12.9 | 16.1 | 0.00 | 0.00 | 0.00 | 66 | 1013.3 |
| 20260904154747 | 32 | 179 | 11.3 | 16.1 | 0.00 | 0.00 | 0.00 | 65 | 1013.4 |
| 20260904154533 | 31 | 174 | 11.3 | 16.1 | 0.00 | 0.00 | 0.00 | 65 | 1010.4 |
| 20260904154238 | 31 | 182 | 9.7 | 19.3 | 0.00 | 0.00 | 0.00 | 65 | 1013.3 |
| 20260904153806 | 31 | 184 | 11.3 | 19.3 | 0.00 | 0.00 | 0.00 | 66 | 1013.2 |
| 20260904153228 | 31 | 173 | 11.3 | 17.7 | 0.00 | 0.00 | 0.00 | 68 | 1013.4 |
| 20260904153006 | 31 | 186 | 11.3 | 17.7 | 0.00 | 0.00 | 0.00 | 68 | 1010.4 |
| 20260904152739 | 31 | 198 | 12.9 | 19.3 | 0.00 | 0.00 | 0.00 | 69 | 1013.2 |
| 20260904152308 | 31 | 199 | 11.3 | 17.7 | 0.00 | 0.00 | 0.00 | 68 | 1013.2 |
| 20260904151732 | 30 | 224 | 9.7 | 16.1 | 0.00 | 0.00 | 0.00 | 69 | 1013.2 |
| 20260904151548 | 30 | 176 | 8.0 | 16.1 | 0.00 | 0.00 | 0.00 | 68 | 1010.3 |
| 20260904151245 | 30 | 213 | 9.7 | 16.1 | 0.00 | 0.00 | 0.00 | 67 | 1013.2 |
| 20260904150727 | 30 | 213 | 12.9 | 19.3 | 0.00 | 0.00 | 0.00 | 67 | 1013.2 |
| 20260904150239 | 31 | 221 | 9.7 | 19.3 | 0.00 | 0.00 | 0.00 | 66 | 1013.3 |
| 20260904150049 | 30 | 210 | 9.7 | 17.7 | 0.00 | 0.00 | 0.00 | 66 | 1010.3 |
| 20260904145722 | 31 | 155 | 9.7 | 17.7 | 0.00 | 0.00 | 0.00 | 68 | 1013.3 |
| 20260904145234 | 31 | 199 | 11.3 | 17.7 | 0.00 | 0.00 | 0.00 | 70 | 1013.3 |
| 20260904144742 | 30 | 159 | 9.7 | 16.1 | 0.00 | 0.00 | 0.00 | 69 | 1013.3 |
| 20260904144550 | 30 | 188 | 8.0 | 16.1 | 0.00 | 0.00 | 0.00 | 69 | 1010.3 |
| 20260904144225 | 30 | 171 | 9.7 | 16.1 | 0.00 | 0.00 | 0.00 | 70 | 1013.4 |
| 20260904143754 | 30 | 184 | 11.3 | 19.3 | 0.00 | 0.00 | 0.00 | 70 | 1013.4 |
| 20260904143244 | 30 | 179 | 9.7 | 17.7 | 0.00 | 0.00 | 0.00 | 71 | 1013.3 |
| 20260904143010 | 29 | 200 | 9.7 | 17.7 | 0.00 | 0.00 | 0.00 | 70 | 1010.5 |
| 20260904142754 | 29 | 153 | 11.3 | 17.7 | 0.00 | 0.00 | 0.00 | 70 | 1013.3 |
| 20260904142244 | 29 | 197 | 9.7 | 16.1 | 0.00 | 0.00 | 0.00 | 72 | 1013.4 |
| 20260904141727 | 29 | 161 | 9.7 | 14.5 | 0.00 | 0.00 | 0.00 | 73 | 1013.4 |
| 20260904141549 | 28 | 183 | 6.4 | 14.5 | 0.00 | 0.00 | 0.00 | 73 | 1010.5 |
| 20260904141235 | 28 | 202 | 6.4 | 14.5 | 0.00 | 0.00 | 0.00 | 73 | 1013.4 |
| 20260904140745 | 28 | 158 | 9.7 | 14.5 | 0.00 | 0.00 | 0.00 | 73 | 1013.3 |
| 20260904140235 | 28 | 161 | 8.0 | 14.5 | 0.00 | 0.00 | 0.00 | 74 | 1013.3 |
| 20260904140022 | 27 | 184 | 8.0 | 16.1 | 0.00 | 0.00 | 0.00 | 74 | 1010.5 |
| 20260904135748 | 28 | 180 | 11.3 | 16.1 | 0.00 | 0.00 | 0.00 | 75 | 1013.3 |
| 20260904135231 | 27 | 203 | 11.3 | 14.5 | 0.00 | 0.00 | 0.00 | 76 | 1013.2 |
| 20260904134804 | 27 | 170 | 11.3 | 14.5 | 0.00 | 0.00 | 0.00 | 77 | 1013.2 |
| 20260904134554 | 27 | 192 | 8.0 | 14.5 | 0.00 | 0.00 | 0.00 | 77 | 1010.3 |
| 20260904134228 | 27 | 171 | 11.3 | 17.7 | 0.00 | 0.00 | 0.00 | 78 | 1013.1 |
| 20260904133734 | 26 | 178 | 9.7 | 17.7 | 0.00 | 0.00 | 0.00 | 78 | 1013.0 |
| 20260904133245 | 26 | 171 | 11.3 | 16.1 | 0.00 | 0.00 | 0.00 | 78 | 1013.0 |
| 20260904133058 | 26 | 175 | 11.3 | 16.1 | 0.00 | 0.00 | 0.00 | 78 | 1010.2 |
| 20260904133001 | 26 | 181 | 9.7 | 17.7 | 0.00 | 0.00 | 0.00 | 78 | 1010.1 |
| 20260904132728 | 26 | 186 | 11.3 | 16.1 | 0.00 | 0.00 | 0.00 | 79 | 1013.0 |
| 20260904132300 | 26 | 165 | 11.3 | 16.1 | 0.00 | 0.00 | 0.00 | 80 | 1013.0 |
| 20260904131723 | 26 | 159 | 11.3 | 17.7 | 0.00 | 0.00 | 0.00 | 81 | 1012.9 |
| 20260904131557 | 25 | 150 | 9.7 | 17.7 | 0.00 | 0.00 | 0.00 | 81 | 1010.1 |
| 20260904131256 | 25 | 160 | 9.7 | 17.7 | 0.00 | 0.00 | 0.00 | 81 | 1012.8 |
| 20260904130742 | 25 | 178 | 9.7 | 17.7 | 0.00 | 0.00 | 0.00 | 82 | 1012.8 |
| 20260904130228 | 25 | 181 | 9.7 | 17.7 | 0.00 | 0.00 | 0.00 | 82 | 1012.7 |
| 20260904130034 | 25 | 156 | 9.7 | 17.7 | 0.00 | 0.00 | 0.00 | 83 | 1009.9 |
| 20260904125739 | 25 | 155 | 11.3 | 16.1 | 0.00 | 0.00 | 0.00 | 83 | 1012.8 |
| 20260904125230 | 25 | 155 | 9.7 | 14.5 | 0.00 | 0.00 | 0.00 | 83 | 1012.7 |
| 20260904124742 | 25 | 159 | 9.7 | 14.5 | 0.00 | 0.00 | 0.00 | 83 | 1012.5 |
| 20260904124509 | 24 | 148 | 9.7 | 14.5 | 0.00 | 0.00 | 0.00 | 83 | 1009.7 |
| 20260904124225 | 25 | 155 | 9.7 | 12.9 | 0.00 | 0.00 | 0.00 | 82 | 1012.6 |
| 20260904123754 | 24 | 160 | 9.7 | 12.9 | 0.00 | 0.00 | 0.00 | 82 | 1012.6 |
| 20260904123241 | 24 | 168 | 8.0 | 9.7 | 0.00 | 0.00 | 0.00 | 82 | 1012.6 |
| 20260904123018 | 24 | 175 | 6.4 | 9.7 | 0.00 | 0.00 | 0.00 | 82 | 1009.7 |
| 20260904122722 | 24 | 160 | 8.0 | 11.3 | 0.00 | 0.00 | 0.00 | 82 | 1012.5 |
| 20260904122254 | 24 | 156 | 6.4 | 11.3 | 0.00 | 0.00 | 0.00 | 81 | 1012.4 |
| 20260904121745 | 24 | 153 | 6.4 | 8.0 | 0.00 | 0.00 | 0.00 | 81 | 1012.4 |
| 20260904121543 | 24 | 152 | 6.4 | 9.7 | 0.00 | 0.00 | 0.00 | 81 | 1009.5 |
| 20260904121258 | 25 | 165 | 6.4 | 8.0 | 0.00 | 0.00 | 0.00 | 81 | 1012.4 |
| 20260904120746 | 25 | 165 | 4.8 | 8.0 | 0.00 | 0.00 | 0.00 | 80 | 1012.4 |
| 20260904120226 | 25 | 165 | 4.8 | 8.0 | 0.00 | 0.00 | 0.00 | 80 | 1012.3 |
| 20260904120021 | 24 | 165 | 3.2 | 8.0 | 0.00 | 0.00 | 0.00 | 80 | 1009.5 |
| 20260904115737 | 25 | 159 | 6.4 | 8.0 | 0.00 | 0.00 | 0.00 | 80 | 1012.3 |
| 20260904115249 | 25 | 194 | 4.8 | 6.4 | 0.00 | 0.00 | 0.00 | 79 | 1012.2 |
| 20260904114729 | 25 | 194 | 4.8 | 6.4 | 0.00 | 0.00 | 0.00 | 79 | 1012.1 |
| 20260904114524 | 25 | 194 | 3.2 | 6.4 | 0.00 | 0.00 | 0.00 | 79 | 1009.2 |
| 20260904114243 | 25 | 194 | 4.8 | 6.4 | 0.00 | 0.00 | 0.00 | 79 | 1012.1 |
| 20260904113726 | 25 | 194 | 4.8 | 8.0 | 0.00 | 0.00 | 0.00 | 79 | 1012.1 |
| 20260904113239 | 25 | 194 | 4.8 | 8.0 | 0.00 | 0.00 | 0.00 | 79 | 1012.0 |
| 20260904113025 | 25 | 194 | 4.8 | 8.0 | 0.00 | 0.00 | 0.00 | 79 | 1009.1 |
| 20260904112721 | 25 | 169 | 6.4 | 9.7 | 0.00 | 0.00 | 0.00 | 79 | 1012.0 |
| 20260904112230 | 25 | 167 | 6.4 | 9.7 | 0.00 | 0.00 | 0.00 | 79 | 1012.0 |
| 20260904111800 | 25 | 175 | 8.0 | 9.7 | 0.00 | 0.00 | 0.00 | 78 | 1012.0 |
| 20260904111556 | 25 | 170 | 4.8 | 8.0 | 0.00 | 0.00 | 0.00 | 78 | 1009.1 |
| 20260904111234 | 25 | 178 | 6.4 | 8.0 | 0.00 | 0.00 | 0.00 | 78 | 1011.9 |
| 20260904110805 | 25 | 165 | 6.4 | 9.7 | 0.00 | 0.03 | 0.00 | 78 | 1011.9 |
| 20260904110228 | 25 | 193 | 8.0 | 11.3 | 0.00 | 0.03 | 0.00 | 78 | 1011.9 |
| 20260904110024 | 25 | 180 | 6.4 | 9.7 | 0.00 | 0.03 | 0.00 | 77 | 1009.1 |
| 20260904105800 | 25 | 176 | 6.4 | 12.9 | 0.00 | 0.03 | 0.00 | 77 | 1012.0 |
| 20260904105248 | 25 | 201 | 6.4 | 12.9 | 0.00 | 0.03 | 0.00 | 77 | 1011.9 |
| 20260904104738 | 25 | 164 | 6.4 | 11.3 | 0.00 | 0.03 | 0.00 | 77 | 1011.9 |
| 20260904104524 | 25 | 173 | 6.4 | 11.3 | 0.00 | 0.03 | 0.00 | 77 | 1009.0 |
| 20260904104222 | 26 | 200 | 6.4 | 12.9 | 0.00 | 0.03 | 0.00 | 77 | 1011.9 |
| 20260904103732 | 26 | 200 | 6.4 | 12.9 | 0.00 | 0.03 | 0.00 | 77 | 1011.9 |
| 20260904103245 | 26 | 200 | 6.4 | 12.9 | 0.00 | 0.03 | 0.00 | 77 | 1011.9 |
| 20260904103033 | 25 | 200 | 6.4 | 12.9 | 0.00 | 0.03 | 0.00 | 77 | 1009.1 |
| 20260904102726 | 26 | 198 | 8.0 | 14.5 | 0.00 | 0.03 | 0.00 | 77 | 1011.9 |
| 20260904102238 | 26 | 191 | 8.0 | 14.5 | 0.00 | 0.03 | 0.00 | 77 | 1011.9 |
| 20260904101746 | 26 | 188 | 9.7 | 14.5 | 0.00 | 0.03 | 0.00 | 76 | 1011.8 |
| 20260904101529 | 26 | 196 | 9.7 | 14.5 | 0.00 | 0.03 | 0.00 | 76 | 1009.0 |
| 20260904101230 | 26 | 193 | 9.7 | 16.1 | 0.00 | 0.03 | 0.00 | 76 | 1011.8 |
| 20260904100739 | 26 | 206 | 8.0 | 16.1 | 0.00 | 0.03 | 0.00 | 76 | 1011.8 |
| 20260904100225 | 26 | 181 | 9.7 | 17.7 | 0.00 | 0.03 | 0.00 | 76 | 1011.8 |
| 20260904100026 | 26 | 205 | 8.0 | 17.7 | 0.00 | 0.03 | 0.00 | 76 | 1008.9 |
| 20260904095756 | 26 | 185 | 11.3 | 17.7 | 0.00 | 0.03 | 0.00 | 75 | 1011.7 |
| 20260904095247 | 26 | 184 | 11.3 | 20.9 | 0.00 | 0.03 | 0.00 | 75 | 1011.8 |
| 20260904094731 | 26 | 219 | 12.9 | 20.9 | 0.00 | 0.03 | 0.00 | 75 | 1011.7 |
| 20260904094509 | 26 | 189 | 12.9 | 25.7 | 0.00 | 0.03 | 0.00 | 75 | 1008.8 |
| 20260904094300 | 26 | 182 | 12.9 | 25.7 | 0.00 | 0.03 | 0.00 | 75 | 1011.7 |
| 20260904093722 | 26 | 188 | 12.9 | 20.9 | 0.00 | 0.03 | 0.00 | 75 | 1011.6 |
| 20260904093233 | 26 | 176 | 12.9 | 22.5 | 0.00 | 0.03 | 0.00 | 75 | 1011.6 |
| 20260904093050 | 26 | 171 | 12.9 | 22.5 | 0.00 | 0.03 | 0.00 | 75 | 1008.7 |
| 20260904092806 | 26 | 200 | 14.5 | 22.5 | 0.00 | 0.03 | 0.00 | 75 | 1011.6 |
| 20260904092227 | 26 | 194 | 14.5 | 24.1 | 0.00 | 0.03 | 0.00 | 75 | 1011.4 |
| 20260904091737 | 26 | 203 | 12.9 | 20.9 | 0.00 | 0.03 | 0.00 | 75 | 1011.4 |
| 20260904091524 | 26 | 210 | 12.9 | 20.9 | 0.00 | 0.03 | 0.00 | 75 | 1008.6 |
| 20260904091310 | 26 | 202 | 11.3 | 20.9 | 0.00 | 0.03 | 0.00 | 75 | 1011.4 |
| 20260904090724 | 26 | 190 | 11.3 | 24.1 | 0.00 | 0.03 | 0.00 | 75 | 1011.4 |
| 20260904090255 | 26 | 178 | 14.5 | 22.5 | 0.00 | 0.03 | 0.00 | 75 | 1011.4 |
| 20260904090049 | 26 | 214 | 11.3 | 22.5 | 0.00 | 0.03 | 0.00 | 75 | 1008.5 |
| 20260904085747 | 26 | 175 | 12.9 | 19.3 | 0.00 | 0.03 | 0.00 | 75 | 1011.3 |
| 20260904085232 | 26 | 181 | 12.9 | 19.3 | 0.00 | 0.03 | 0.00 | 75 | 1011.4 |
| 20260904084744 | 26 | 202 | 12.9 | 19.3 | 0.00 | 0.03 | 0.00 | 75 | 1011.3 |
| 20260904084548 | 26 | 208 | 11.3 | 19.3 | 0.00 | 0.03 | 0.00 | 75 | 1008.5 |
| 20260904084228 | 26 | 169 | 12.9 | 19.3 | 0.00 | 0.03 | 0.00 | 75 | 1011.3 |
| 20260904083738 | 26 | 194 | 12.9 | 19.3 | 0.00 | 0.03 | 0.00 | 75 | 1011.3 |
| 20260904083247 | 26 | 207 | 12.9 | 20.9 | 0.00 | 0.03 | 0.00 | 75 | 1011.3 |
| 20260904083102 | 25 | 223 | 12.9 | 20.9 | 0.00 | 0.03 | 0.00 | 75 | 1008.4 |
| 20260904082738 | 26 | 165 | 14.5 | 22.5 | 0.00 | 0.03 | 0.00 | 75 | 1011.2 |
| 20260904082249 | 26 | 202 | 14.5 | 20.9 | 0.00 | 0.03 | 0.00 | 75 | 1011.2 |
| 20260904081741 | 26 | 178 | 14.5 | 20.9 | 0.00 | 0.03 | 0.00 | 75 | 1011.3 |
| 20260904081521 | 25 | 178 | 12.9 | 20.9 | 0.00 | 0.03 | 0.00 | 74 | 1008.4 |
| 20260904081227 | 26 | 188 | 12.9 | 20.9 | 0.00 | 0.03 | 0.00 | 75 | 1011.3 |
| 20260904080737 | 26 | 212 | 11.3 | 20.9 | 0.00 | 0.03 | 0.00 | 74 | 1011.3 |
| 20260904080249 | 26 | 179 | 11.3 | 19.3 | 0.00 | 0.03 | 0.00 | 74 | 1011.3 |
| 20260904080023 | 25 | 202 | 11.3 | 22.5 | 0.00 | 0.03 | 0.00 | 74 | 1008.5 |
| 20260904075732 | 26 | 225 | 12.9 | 19.3 | 0.00 | 0.03 | 0.00 | 74 | 1011.4 |
| 20260904075240 | 26 | 222 | 9.7 | 16.1 | 0.00 | 0.03 | 0.00 | 73 | 1011.4 |
| 20260904074725 | 26 | 198 | 11.3 | 17.7 | 0.00 | 0.03 | 0.00 | 73 | 1011.5 |
| 20260904074546 | 26 | 202 | 9.7 | 17.7 | 0.00 | 0.03 | 0.00 | 73 | 1008.6 |
| 20260904074238 | 26 | 173 | 11.3 | 17.7 | 0.00 | 0.03 | 0.00 | 73 | 1011.4 |
| 20260904073809 | 26 | 180 | 12.9 | 19.3 | 0.00 | 0.03 | 0.00 | 73 | 1011.4 |
| 20260904073232 | 26 | 180 | 12.9 | 17.7 | 0.00 | 0.03 | 0.00 | 72 | 1011.4 |
| 20260904073016 | 26 | 165 | 11.3 | 17.7 | 0.00 | 0.03 | 0.00 | 72 | 1008.6 |
| 20260904072743 | 26 | 173 | 12.9 | 17.7 | 0.00 | 0.03 | 0.00 | 72 | 1011.3 |
| 20260904072225 | 26 | 173 | 11.3 | 17.7 | 0.00 | 0.03 | 0.00 | 72 | 1011.4 |
| 20260904071732 | 26 | 202 | 12.9 | 20.9 | 0.00 | 0.03 | 0.00 | 71 | 1011.4 |
| 20260904071511 | 26 | 193 | 12.9 | 24.1 | 0.00 | 0.03 | 0.00 | 71 | 1008.6 |
| 20260904071245 | 26 | 187 | 12.9 | 24.1 | 0.00 | 0.03 | 0.00 | 71 | 1011.4 |
| 20260904070726 | 26 | 205 | 14.5 | 25.7 | 0.00 | 0.03 | 0.00 | 71 | 1011.3 |
| 20260904070237 | 27 | 166 | 14.5 | 25.7 | 0.00 | 0.03 | 0.00 | 71 | 1011.3 |
| 20260904070007 | 26 | 160 | 12.9 | 25.7 | 0.00 | 0.03 | 0.00 | 70 | 1008.4 |
| 20260904065746 | 27 | 136 | 14.5 | 22.5 | 0.00 | 0.03 | 0.00 | 70 | 1011.3 |
| 20260904065227 | 27 | 181 | 14.5 | 22.5 | 0.00 | 0.03 | 0.00 | 70 | 1011.3 |
| 20260904064740 | 27 | 188 | 11.3 | 22.5 | 0.00 | 0.03 | 0.00 | 70 | 1011.3 |
| 20260904064515 | 27 | 200 | 12.9 | 29.0 | 0.00 | 0.03 | 0.00 | 70 | 1008.5 |
| 20260904064252 | 27 | 173 | 12.9 | 29.0 | 0.00 | 0.03 | 0.00 | 70 | 1011.4 |
| 20260904063738 | 27 | 188 | 16.1 | 32.2 | 0.00 | 0.03 | 0.00 | 69 | 1011.3 |
| 20260904063252 | 27 | 193 | 16.1 | 32.2 | 0.00 | 0.03 | 0.00 | 69 | 1011.4 |
| 20260904063043 | 27 | 164 | 16.1 | 32.2 | 0.00 | 0.03 | 0.00 | 69 | 1008.5 |
| 20260904062743 | 27 | 178 | 16.1 | 27.4 | 0.00 | 0.03 | 0.00 | 69 | 1011.3 |
| 20260904062225 | 27 | 162 | 14.5 | 22.5 | 0.00 | 0.03 | 0.00 | 69 | 1011.3 |
| 20260904061736 | 27 | 201 | 14.5 | 25.7 | 0.00 | 0.03 | 0.00 | 69 | 1011.3 |
| 20260904061541 | 27 | 191 | 11.3 | 27.4 | 0.00 | 0.03 | 0.00 | 69 | 1008.4 |
| 20260904061245 | 27 | 182 | 14.5 | 27.4 | 0.00 | 0.03 | 0.00 | 69 | 1011.3 |
| 20260904060726 | 27 | 209 | 16.1 | 27.4 | 0.00 | 0.03 | 0.00 | 69 | 1011.3 |
| 20260904060234 | 27 | 200 | 14.5 | 25.7 | 0.00 | 0.03 | 0.00 | 69 | 1011.2 |
| 20260904060045 | 27 | 184 | 12.9 | 25.7 | 0.00 | 0.03 | 0.00 | 69 | 1008.3 |
| 20260904055745 | 27 | 178 | 16.1 | 25.7 | 0.00 | 0.03 | 0.00 | 69 | 1011.2 |
| 20260904055229 | 27 | 165 | 17.7 | 25.7 | 0.00 | 0.03 | 0.00 | 69 | 1011.0 |
| 20260904054740 | 27 | 166 | 17.7 | 27.4 | 0.00 | 0.03 | 0.00 | 69 | 1011.0 |
| 20260904054542 | 27 | 173 | 16.1 | 27.4 | 0.00 | 0.03 | 0.00 | 69 | 1008.1 |
| 20260904054231 | 27 | 170 | 16.1 | 24.1 | 0.00 | 0.03 | 0.00 | 69 | 1011.0 |
| 20260904053740 | 27 | 148 | 16.1 | 24.1 | 0.00 | 0.03 | 0.00 | 69 | 1011.0 |
| 20260904053255 | 27 | 173 | 16.1 | 25.7 | 0.00 | 0.03 | 0.00 | 69 | 1011.0 |
| 20260904053059 | 27 | 202 | 16.1 | 24.1 | 0.00 | 0.03 | 0.00 | 69 | 1008.1 |
| 20260904053001 | 27 | 161 | 14.5 | 22.5 | 0.00 | 0.03 | 0.00 | 69 | 1008.1 |
| 20260904052742 | 27 | 150 | 14.5 | 22.5 | 0.00 | 0.03 | 0.00 | 69 | 1011.0 |
| 20260904052224 | 27 | 150 | 17.7 | 27.4 | 0.00 | 0.03 | 0.00 | 69 | 1010.9 |
| 20260904051735 | 27 | 145 | 16.1 | 25.7 | 0.00 | 0.03 | 0.00 | 69 | 1010.9 |
| 20260904051508 | 27 | 146 | 16.1 | 25.7 | 0.00 | 0.03 | 0.00 | 69 | 1008.1 |
| 20260904051249 | 27 | 188 | 17.7 | 25.7 | 0.00 | 0.03 | 0.00 | 69 | 1010.9 |
| 20260904050731 | 27 | 148 | 14.5 | 27.4 | 0.00 | 0.03 | 0.03 | 69 | 1011.0 |
| 20260904050222 | 27 | 166 | 16.1 | 25.7 | 0.00 | 0.03 | 0.03 | 69 | 1010.9 |
| 20260904050051 | 27 | 150 | 14.5 | 27.4 | 0.00 | 0.03 | 0.03 | 69 | 1008.1 |
| 20260904045733 | 27 | 143 | 16.1 | 27.4 | 0.00 | 0.03 | 0.03 | 68 | 1010.9 |
| 20260904045248 | 27 | 139 | 17.7 | 27.4 | 0.00 | 0.03 | 0.03 | 69 | 1010.9 |
| 20260904044727 | 28 | 160 | 14.5 | 25.7 | 0.00 | 0.03 | 0.03 | 68 | 1010.9 |
| 20260904044607 | 27 | 156 | 14.5 | 25.7 | 0.00 | 0.03 | 0.03 | 68 | 1008.0 |
| 20260904044240 | 28 | 159 | 16.1 | 24.1 | 0.00 | 0.03 | 0.03 | 68 | 1010.9 |
| 20260904043722 | 28 | 159 | 16.1 | 24.1 | 0.00 | 0.03 | 0.03 | 68 | 1010.8 |
| 20260904043233 | 28 | 147 | 16.1 | 24.1 | 0.00 | 0.03 | 0.03 | 68 | 1010.9 |
| 20260904043101 | 27 | 150 | 14.5 | 24.1 | 0.00 | 0.03 | 0.03 | 68 | 1008.0 |
| 20260904042745 | 28 | 138 | 17.7 | 24.1 | 0.00 | 0.03 | 0.03 | 68 | 1010.9 |
| 20260904042227 | 28 | 167 | 14.5 | 22.5 | 0.00 | 0.03 | 0.03 | 68 | 1010.9 |
| 20260904041737 | 28 | 165 | 16.1 | 24.1 | 0.00 | 0.03 | 0.03 | 67 | 1010.9 |
| 20260904041605 | 28 | 149 | 12.9 | 24.1 | 0.00 | 0.03 | 0.03 | 67 | 1008.0 |
| 20260904041507 | 28 | 130 | 12.9 | 24.1 | 0.00 | 0.03 | 0.03 | 67 | 1008.0 |
| 20260904041223 | 28 | 176 | 12.9 | 24.1 | 0.00 | 0.03 | 0.03 | 67 | 1010.9 |
| 20260904040729 | 28 | 172 | 12.9 | 24.1 | 0.00 | 0.03 | 0.03 | 67 | 1010.9 |
| 20260904040303 | 28 | 163 | 14.5 | 24.1 | 0.00 | 0.03 | 0.03 | 67 | 1010.9 |
| 20260904040100 | 28 | 158 | 14.5 | 24.1 | 0.00 | 0.03 | 0.03 | 67 | 1008.0 |
| 20260904035725 | 28 | 157 | 14.5 | 24.1 | 0.00 | 0.03 | 0.03 | 67 | 1011.0 |
| 20260904035237 | 28 | 152 | 16.1 | 25.7 | 0.00 | 0.03 | 0.03 | 66 | 1010.9 |
| 20260904034749 | 28 | 150 | 16.1 | 25.7 | 0.00 | 0.03 | 0.03 | 66 | 1011.0 |
| 20260904034559 | 28 | 163 | 12.9 | 24.1 | 0.00 | 0.03 | 0.03 | 66 | 1008.1 |
| 20260904034233 | 28 | 148 | 16.1 | 24.1 | 0.00 | 0.03 | 0.03 | 66 | 1011.0 |
| 20260904033803 | 29 | 198 | 14.5 | 25.7 | 0.00 | 0.03 | 0.03 | 66 | 1011.0 |
| 20260904033221 | 29 | 154 | 16.1 | 24.1 | 0.00 | 0.03 | 0.03 | 66 | 1010.9 |
| 20260904033027 | 28 | 146 | 16.1 | 24.1 | 0.00 | 0.03 | 0.03 | 66 | 1008.0 |
| 20260904032753 | 29 | 132 | 17.7 | 29.0 | 0.00 | 0.03 | 0.03 | 65 | 1010.9 |
| 20260904032244 | 29 | 151 | 16.1 | 29.0 | 0.00 | 0.03 | 0.03 | 65 | 1011.0 |
| 20260904031730 | 29 | 165 | 19.3 | 30.6 | 0.00 | 0.03 | 0.03 | 65 | 1010.9 |
| 20260904031508 | 29 | 148 | 16.1 | 27.4 | 0.00 | 0.03 | 0.03 | 65 | 1007.9 |
| 20260904031243 | 29 | 134 | 17.7 | 27.4 | 0.00 | 0.03 | 0.03 | 65 | 1010.9 |
| 20260904030723 | 29 | 133 | 19.3 | 27.4 | 0.00 | 0.03 | 0.03 | 65 | 1010.8 |
| 20260904030255 | 29 | 132 | 16.1 | 27.4 | 0.00 | 0.03 | 0.03 | 65 | 1010.7 |
| 20260904030046 | 29 | 153 | 12.9 | 24.1 | 0.00 | 0.03 | 0.03 | 65 | 1007.7 |
| 20260904025741 | 29 | 150 | 16.1 | 24.1 | 0.00 | 0.03 | 0.03 | 65 | 1010.7 |
| 20260904025227 | 30 | 138 | 17.7 | 30.6 | 0.00 | 0.03 | 0.03 | 65 | 1010.7 |
| 20260904024740 | 30 | 144 | 16.1 | 30.6 | 0.00 | 0.03 | 0.03 | 65 | 1010.7 |
| 20260904024544 | 29 | 136 | 17.7 | 30.6 | 0.00 | 0.03 | 0.03 | 65 | 1007.6 |
| 20260904024224 | 30 | 130 | 16.1 | 30.6 | 0.00 | 0.03 | 0.03 | 65 | 1010.7 |
| 20260904023734 | 30 | 136 | 16.1 | 27.4 | 0.00 | 0.03 | 0.03 | 65 | 1010.6 |
| 20260904023306 | 30 | 135 | 17.7 | 27.4 | 0.00 | 0.03 | 0.03 | 64 | 1010.6 |
| 20260904023026 | 30 | 161 | 14.5 | 22.5 | 0.00 | 0.03 | 0.03 | 64 | 1007.6 |
| 20260904022730 | 30 | 135 | 16.1 | 22.5 | 0.00 | 0.03 | 0.03 | 64 | 1010.6 |
| 20260904022257 | 30 | 156 | 16.1 | 25.7 | 0.00 | 0.03 | 0.03 | 64 | 1010.6 |
| 20260904021721 | 30 | 144 | 17.7 | 29.0 | 0.00 | 0.03 | 0.03 | 64 | 1010.5 |
| 20260904021504 | 30 | 136 | 16.1 | 29.0 | 0.00 | 0.03 | 0.03 | 64 | 1007.5 |
| 20260904021233 | 30 | 149 | 16.1 | 25.7 | 0.00 | 0.03 | 0.03 | 64 | 1010.4 |
| 20260904020802 | 30 | 144 | 16.1 | 27.4 | 0.00 | 0.03 | 0.03 | 64 | 1010.5 |
| 20260904020225 | 30 | 168 | 16.1 | 27.4 | 0.00 | 0.03 | 0.03 | 63 | 1010.4 |
| 20260904020051 | 30 | 141 | 19.3 | 27.4 | 0.00 | 0.03 | 0.03 | 63 | 1007.3 |
| 20260904015738 | 30 | 147 | 14.5 | 27.4 | 0.00 | 0.03 | 0.03 | 63 | 1010.4 |
| 20260904015223 | 30 | 155 | 12.9 | 25.7 | 0.00 | 0.03 | 0.03 | 63 | 1010.4 |
| 20260904014732 | 30 | 136 | 16.1 | 24.1 | 0.00 | 0.03 | 0.03 | 63 | 1010.3 |
| 20260904014622 | 30 | 167 | 16.1 | 24.1 | 0.00 | 0.03 | 0.03 | 63 | 1007.3 |
| 20260904014244 | 30 | 148 | 12.9 | 22.5 | 0.00 | 0.03 | 0.03 | 63 | 1010.2 |
| 20260904013731 | 31 | 158 | 12.9 | 24.1 | 0.00 | 0.03 | 0.03 | 63 | 1010.2 |
| 20260904013244 | 31 | 151 | 16.1 | 25.7 | 0.00 | 0.03 | 0.03 | 63 | 1010.2 |
| 20260904013029 | 30 | 142 | 14.5 | 25.7 | 0.00 | 0.03 | 0.03 | 62 | 1007.1 |
| 20260904012726 | 31 | 148 | 16.1 | 24.1 | 0.00 | 0.03 | 0.03 | 62 | 1010.1 |
| 20260904012239 | 31 | 177 | 12.9 | 24.1 | 0.00 | 0.03 | 0.03 | 62 | 1010.0 |
| 20260904011726 | 31 | 146 | 14.5 | 22.5 | 0.00 | 0.03 | 0.03 | 62 | 1009.9 |
| 20260904011506 | 31 | 158 | 14.5 | 24.1 | 0.00 | 0.03 | 0.03 | 62 | 1006.9 |
| 20260904011255 | 31 | 155 | 16.1 | 24.1 | 0.00 | 0.03 | 0.03 | 61 | 1009.9 |
| 20260904010744 | 31 | 140 | 12.9 | 24.1 | 0.00 | 0.03 | 0.03 | 61 | 1009.8 |
| 20260904010234 | 32 | 159 | 12.9 | 22.5 | 0.00 | 0.03 | 0.03 | 60 | 1009.8 |
| 20260904010032 | 31 | 138 | 12.9 | 22.5 | 0.00 | 0.03 | 0.03 | 60 | 1006.8 |
| 20260904005745 | 32 | 144 | 14.5 | 22.5 | 0.00 | 0.03 | 0.03 | 59 | 1009.7 |
| 20260904005228 | 32 | 146 | 12.9 | 22.5 | 0.00 | 0.03 | 0.03 | 58 | 1009.8 |
| 20260904004740 | 32 | 144 | 12.9 | 22.5 | 0.00 | 0.03 | 0.03 | 58 | 1009.7 |
| 20260904004528 | 32 | 174 | 12.9 | 25.7 | 0.00 | 0.03 | 0.03 | 58 | 1006.7 |
| 20260904004224 | 32 | 167 | 12.9 | 25.7 | 0.00 | 0.03 | 0.03 | 58 | 1009.7 |
| 20260904003748 | 32 | 147 | 16.1 | 25.7 | 0.00 | 0.03 | 0.03 | 57 | 1009.7 |
| 20260904003232 | 33 | 168 | 14.5 | 29.0 | 0.00 | 0.03 | 0.03 | 57 | 1009.7 |
| 20260904003030 | 32 | 149 | 14.5 | 29.0 | 0.00 | 0.03 | 0.03 | 57 | 1006.6 |
| 20260904002743 | 33 | 150 | 14.5 | 29.0 | 0.00 | 0.03 | 0.03 | 57 | 1009.6 |
| 20260904002235 | 33 | 157 | 14.5 | 29.0 | 0.00 | 0.03 | 0.03 | 57 | 1009.7 |
| 20260904001746 | 33 | 157 | 17.7 | 29.0 | 0.00 | 0.03 | 0.03 | 56 | 1009.7 |
| 20260904001516 | 33 | 146 | 11.3 | 22.5 | 0.00 | 0.03 | 0.03 | 56 | 1006.6 |
| 20260904001230 | 33 | 189 | 16.1 | 25.7 | 0.00 | 0.03 | 0.03 | 56 | 1009.6 |
| 20260904000802 | 33 | 167 | 11.3 | 27.4 | 0.00 | 0.03 | 0.03 | 56 | 1009.6 |
| 20260904000248 | 34 | 163 | 14.5 | 27.4 | 0.00 | 0.03 | 0.03 | 55 | 1009.6 |
| 20260904000042 | 33 | 177 | 16.1 | 27.4 | 0.00 | 0.03 | 0.03 | 55 | 1006.5 |
| 20260903235731 | 34 | 135 | 16.1 | 25.7 | 0.00 | 0.03 | 0.03 | 55 | 1009.6 |
| 20260903235301 | 34 | 158 | 14.5 | 27.4 | 0.00 | 0.03 | 0.03 | 55 | 1009.6 |
| 20260903234721 | 35 | 182 | 17.7 | 30.6 | 0.00 | 0.03 | 0.03 | 54 | 1009.5 |
| 20260903234524 | 34 | 167 | 14.5 | 30.6 | 0.00 | 0.03 | 0.03 | 54 | 1006.5 |
| 20260903234235 | 35 | 169 | 16.1 | 30.6 | 0.00 | 0.03 | 0.03 | 53 | 1009.5 |
| 20260903233807 | 35 | 166 | 14.5 | 25.7 | 0.00 | 0.03 | 0.03 | 54 | 1009.5 |
| 20260903233229 | 35 | 156 | 14.5 | 33.8 | 0.00 | 0.03 | 0.03 | 53 | 1009.5 |
| 20260903233113 | 35 | 180 | 14.5 | 33.8 | 0.00 | 0.03 | 0.03 | 53 | 1006.4 |
| 20260903233001 | 35 | 176 | 16.1 | 33.8 | 0.00 | 0.03 | 0.03 | 52 | 1006.4 |
| 20260903232755 | 35 | 155 | 16.1 | 33.8 | 0.00 | 0.03 | 0.03 | 52 | 1009.4 |
| 20260903232224 | 35 | 157 | 16.1 | 29.0 | 0.00 | 0.03 | 0.03 | 52 | 1009.4 |
| 20260903231734 | 35 | 169 | 17.7 | 30.6 | 0.00 | 0.03 | 0.03 | 50 | 1009.4 |
| 20260903231530 | 35 | 157 | 19.3 | 30.6 | 0.00 | 0.03 | 0.03 | 51 | 1006.3 |
| 20260903231247 | 36 | 142 | 19.3 | 30.6 | 0.00 | 0.03 | 0.03 | 50 | 1009.3 |
| 20260903230729 | 36 | 150 | 17.7 | 30.6 | 0.00 | 0.03 | 0.03 | 51 | 1009.4 |
| 20260903230240 | 36 | 171 | 17.7 | 30.6 | 0.00 | 0.03 | 0.03 | 51 | 1009.4 |
| 20260903230028 | 36 | 173 | 17.7 | 30.6 | 0.00 | 0.03 | 0.03 | 51 | 1006.3 |
| 20260903225725 | 36 | 200 | 16.1 | 27.4 | 0.00 | 0.03 | 0.03 | 51 | 1009.4 |
| 20260903225234 | 36 | 154 | 14.5 | 27.4 | 0.00 | 0.03 | 0.03 | 51 | 1009.3 |
| 20260903224744 | 36 | 169 | 17.7 | 30.6 | 0.00 | 0.03 | 0.03 | 50 | 1009.2 |
| 20260903224525 | 36 | 160 | 19.3 | 30.6 | 0.00 | 0.03 | 0.03 | 50 | 1006.2 |
| 20260903224319 | 36 | 170 | 19.3 | 30.6 | 0.00 | 0.03 | 0.03 | 50 | 1009.2 |
| 20260903223738 | 36 | 175 | 24.1 | 35.4 | 0.00 | 0.03 | 0.03 | 49 | 1009.0 |
| 20260903223221 | 36 | 162 | 19.3 | 35.4 | 0.00 | 0.03 | 0.03 | 49 | 1009.0 |
| 20260903223046 | 36 | 173 | 24.1 | 35.4 | 0.00 | 0.03 | 0.03 | 49 | 1006.1 |
| 20260903222753 | 36 | 181 | 20.9 | 37.0 | 0.00 | 0.03 | 0.03 | 49 | 1009.1 |
| 20260903222237 | 36 | 158 | 20.9 | 35.4 | 0.00 | 0.03 | 0.03 | 49 | 1009.1 |
| 20260903221809 | 36 | 178 | 20.9 | 35.4 | 0.00 | 0.03 | 0.03 | 48 | 1009.0 |
| 20260903221558 | 36 | 159 | 24.1 | 35.4 | 0.00 | 0.03 | 0.03 | 47 | 1006.0 |
| 20260903221233 | 36 | 209 | 20.9 | 38.6 | 0.00 | 0.03 | 0.03 | 49 | 1009.0 |
| 20260903220803 | 36 | 159 | 20.9 | 30.6 | 0.00 | 0.03 | 0.03 | 49 | 1009.0 |
| 20260903220226 | 36 | 190 | 24.1 | 33.8 | 0.00 | 0.03 | 0.03 | 48 | 1009.1 |
| 20260903220042 | 36 | 190 | 20.9 | 37.0 | 0.00 | 0.03 | 0.03 | 49 | 1006.1 |
| 20260903215737 | 37 | 143 | 20.9 | 37.0 | 0.00 | 0.03 | 0.03 | 49 | 1009.2 |
| 20260903215306 | 37 | 198 | 24.1 | 38.6 | 0.00 | 0.03 | 0.03 | 49 | 1009.2 |
| 20260903214726 | 37 | 143 | 16.1 | 32.2 | 0.00 | 0.03 | 0.03 | 50 | 1009.2 |
| 20260903214519 | 36 | 163 | 19.3 | 32.2 | 0.00 | 0.03 | 0.03 | 49 | 1006.1 |
| 20260903214239 | 37 | 177 | 20.9 | 32.2 | 0.00 | 0.03 | 0.03 | 49 | 1009.2 |
| 20260903213721 | 37 | 171 | 19.3 | 35.4 | 0.00 | 0.03 | 0.03 | 50 | 1009.3 |
| 20260903213254 | 36 | 180 | 22.5 | 35.4 | 0.00 | 0.03 | 0.03 | 50 | 1009.4 |
| 20260903213057 | 36 | 167 | 19.3 | 30.6 | 0.00 | 0.03 | 0.03 | 50 | 1006.3 |
| 20260903212805 | 36 | 172 | 17.7 | 40.2 | 0.00 | 0.03 | 0.03 | 50 | 1009.4 |